TIANMU-1 09

Last updated on Tue Jul 08 2025 00:02:22 GMT+0000 (Coordinated Universal Time)

1 57401U 23101C 25188.57123406 .00004761 00000+0 19174-3 0 9998 2 57401 97.3043 241.4396 0003609 283.0326 77.0509 15.25323004109021
UTC large
Height (km)
Speed (km/s)
/
Latitude / Longitude
Inclination (degrees)
Orbital Period (minutes)
Azimuth
Elevation
Range (km)
Doppler Factor

Next 0 passes for location: London (51.5072 / 0.1276)

Sorry there are no passes over London.